Location: Buckeye Ditch
(40.9104°N, 122.9517°W)
Time: 22:58:16
(UTC+00:00)

Transit 2A - Pass Details

Date: 24 May 2025
Orbit: 599 x 947 km, 66.7° (Epoch: 20 June)

Event Time Altitude Azimuth Distance (km) Brightness Sun altitude
Rises 14:31:43 0° 227° (SW) 3,022 8.6 17.7°
Reaches altitude 10° 14:34:13 10° 235° (SW) 2,063 7.8 18.2°
Maximum altitude 14:38:32 39° 305° (NW) 945 6.4 19.0°
Drops below altitude 10° 14:42:40 10° 15° (NNE) 1,964 8.6 19.7°
Sets 14:45:00 0° 23° (NNE) 2,857 9.4 20.2°
